When you browse on this site, cookies collect data to enhance your experience and personalize the content and advertising you see.
Visit our Privacy Policy to learn more. By continuing to use the site, you agree to this use of cookies and data.
  • In Romania
  • List of Countries
  • For 7 days
  • Water Temperature
  • Satellite Maps
  • Weather Map
  • Weather Widgets
  • user-avatar
    Login

    Hourly Weather Maracaibo

    Today, 20 June, Thursday

    Time Temperature Precipitation Wind Pressure Humidity
    00:00 +29°C° 0 mm 3 mps 752 mmHg 76%
    01:00 +29°C° 0 mm 3 mps 752 mmHg 76%
    02:00 +28°C° 0 mm 3 mps 752 mmHg 77%
    03:00 +28°C° 0 mm 2 mps 751 mmHg 78%
    04:00 +28°C° 0 mm 2 mps 751 mmHg 80%
    05:00 +28°C° 0.2 mm 2 mps 752 mmHg 77%
    06:00 +29°C° 0.2 mm 2 mps 752 mmHg 75%
    07:00 +30°C° 0.2 mm 2 mps 752 mmHg 73%
    08:00 +31°C° 0 mm 2 mps 753 mmHg 68%
    09:00 +32°C° 0 mm 2 mps 753 mmHg 62%
    10:00 +35°C° 0 mm 2 mps 753 mmHg 57%
    11:00 +35°C° 0.3 mm 2 mps 752 mmHg 57%
    12:00 +35°C° 0.3 mm 3 mps 752 mmHg 57%
    13:00 +36°C° 0.3 mm 3 mps 752 mmHg 57%
    14:00 +35°C° 0.2 mm 4 mps 751 mmHg 58%
    15:00 +35°C° 0.2 mm 4 mps 751 mmHg 59%
    16:00 +34°C° 0.2 mm 4 mps 751 mmHg 60%
    17:00 +33°C° 0 mm 4 mps 751 mmHg 65%
    18:00 +31°C° 0 mm 3 mps 752 mmHg 70%
    19:00 +30°C° 0 mm 2 mps 752 mmHg 75%
    20:00 +30°C° 0 mm 2 mps 752 mmHg 75%
    21:00 +29°C° 0 mm 1 mps 753 mmHg 76%
    22:00 +27°C° 0 mm 0 mps 754 mmHg 76%
    23:00 +27°C° 0.1 mm 0 mps 753 mmHg 77%

    Tomorrow, 21 June, Friday

    Time Temperature Precipitation Wind Pressure Humidity
    00:00 +29°C° 0.1 mm 1 mps 753 mmHg 79%
    01:00 +28°C° 0.1 mm 1 mps 753 mmHg 80%
    02:00 +28°C° 0 mm 1 mps 752 mmHg 82%
    03:00 +27°C° 0 mm 1 mps 752 mmHg 83%
    04:00 +27°C° 0 mm 1 mps 752 mmHg 85%
    05:00 +28°C° 0 mm 1 mps 752 mmHg 82%
    06:00 +28°C° 0 mm 1 mps 753 mmHg 80%
    07:00 +29°C° 0 mm 1 mps 753 mmHg 78%
    08:00 +31°C° 0 mm 1 mps 753 mmHg 71%
    09:00 +32°C° 0 mm 1 mps 754 mmHg 64%
    10:00 +34°C° 0 mm 1 mps 754 mmHg 58%
    11:00 +35°C° 0.1 mm 1 mps 753 mmHg 53%
    12:00 +36°C° 0.1 mm 1 mps 753 mmHg 49%
    13:00 +37°C° 0.1 mm 1 mps 752 mmHg 45%
    14:00 +37°C° 0.1 mm 2 mps 752 mmHg 47%
    15:00 +37°C° 0.1 mm 2 mps 752 mmHg 49%
    16:00 +36°C° 0.1 mm 2 mps 751 mmHg 50%
    17:00 +35°C° 0 mm 2 mps 752 mmHg 56%
    18:00 +33°C° 0 mm 3 mps 752 mmHg 61%
    19:00 +30°C° 0 mm 3 mps 753 mmHg 67%
    20:00 +30°C° 0 mm 3 mps 753 mmHg 66%
    21:00 +30°C° 0 mm 3 mps 754 mmHg 65%
    22:00 +30°C° 0 mm 3 mps 754 mmHg 64%
    23:00 +30°C° 0 mm 3 mps 754 mmHg 64%

    Day after tomorrow, 22 June, Saturday

    Time Temperature Precipitation Wind Pressure Humidity
    00:00 +29°C° 0 mm 3 mps 754 mmHg 65%
    01:00 +29°C° 0 mm 2 mps 753 mmHg 66%
    02:00 +29°C° 0 mm 2 mps 753 mmHg 67%
    03:00 +28°C° 0 mm 3 mps 753 mmHg 67%
    04:00 +28°C° 0 mm 3 mps 753 mmHg 67%
    05:00 +28°C° 0 mm 3 mps 754 mmHg 67%
    06:00 +29°C° 0 mm 3 mps 754 mmHg 66%
    07:00 +29°C° 0 mm 3 mps 754 mmHg 65%
    08:00 +31°C° 0 mm 2 mps 754 mmHg 58%
    09:00 +34°C° 0 mm 2 mps 754 mmHg 51%
    10:00 +36°C° 0 mm 2 mps 754 mmHg 45%
    11:00 +36°C° 0 mm 2 mps 753 mmHg 42%
    12:00 +37°C° 0 mm 2 mps 753 mmHg 40%
    13:00 +38°C° 0 mm 2 mps 752 mmHg 38%
    14:00 +37°C° 0 mm 3 mps 752 mmHg 43%
    15:00 +36°C° 0 mm 3 mps 751 mmHg 47%
    16:00 +35°C° 0 mm 4 mps 751 mmHg 52%
    17:00 +34°C° 0 mm 3 mps 751 mmHg 57%
    18:00 +33°C° 0 mm 3 mps 752 mmHg 62%
    19:00 +31°C° 0 mm 3 mps 753 mmHg 67%
    20:00 +31°C° 0 mm 3 mps 753 mmHg 67%
    21:00 +30°C° 0 mm 3 mps 754 mmHg 68%
    22:00 +30°C° 0 mm 2 mps 754 mmHg 69%
    23:00 +30°C° 0 mm 3 mps 754 mmHg 68%

    23 June, Sunday

    Time Temperature Precipitation Wind Pressure Humidity
    00:00 +29°C° 0 mm 3 mps 754 mmHg 68%
    01:00 +29°C° 0 mm 3 mps 753 mmHg 67%
    02:00 +29°C° 0 mm 3 mps 753 mmHg 68%
    03:00 +28°C° 0 mm 3 mps 753 mmHg 70%
    04:00 +28°C° 0 mm 2 mps 753 mmHg 71%
    05:00 +29°C° 0 mm 2 mps 753 mmHg 70%
    06:00 +29°C° 0 mm 2 mps 753 mmHg 69%
    07:00 +29°C° 0 mm 2 mps 753 mmHg 68%
    08:00 +31°C° 0 mm 2 mps 753 mmHg 62%
    09:00 +33°C° 0 mm 1 mps 754 mmHg 57%
    10:00 +34°C° 0 mm 1 mps 754 mmHg 51%
    11:00 +36°C° 0 mm 2 mps 753 mmHg 50%
    12:00 +36°C° 0 mm 2 mps 752 mmHg 50%
    13:00 +36°C° 0 mm 2 mps 751 mmHg 49%
    14:00 +36°C° 0 mm 2 mps 751 mmHg 51%
    15:00 +35°C° 0 mm 2 mps 750 mmHg 53%
    16:00 +35°C° 0 mm 2 mps 750 mmHg 55%
    17:00 +34°C° 0 mm 3 mps 750 mmHg 61%
    18:00 +31°C° 0 mm 3 mps 751 mmHg 67%
    19:00 +30°C° 0 mm 3 mps 751 mmHg 73%
    20:00 +30°C° 0 mm 3 mps 752 mmHg 76%
    21:00 +30°C° 0 mm 3 mps 752 mmHg 78%
    22:00 +29°C° 0 mm 2 mps 753 mmHg 80%
    23:00 +29°C° 0 mm 2 mps 752 mmHg 81%

    24 June, Monday

    Time Temperature Precipitation Wind Pressure Humidity
    00:00 +29°C° 0 mm 1 mps 752 mmHg 82%
    01:00 +28°C° 0 mm 1 mps 752 mmHg 83%
    02:00 +28°C° 0 mm 1 mps 751 mmHg 84%
    03:00 +28°C° 0 mm 1 mps 751 mmHg 84%
    04:00 +28°C° 0 mm 1 mps 751 mmHg 85%
    05:00 +28°C° 0 mm 1 mps 751 mmHg 82%
    06:00 +29°C° 0 mm 1 mps 752 mmHg 79%
    07:00 +29°C° 0 mm 1 mps 752 mmHg 76%
    08:00 +31°C° 0 mm 1 mps 752 mmHg 69%
    09:00 +33°C° 0 mm 1 mps 752 mmHg 61%
    10:00 +35°C° 0 mm 1 mps 753 mmHg 53%
    11:00 +35°C° 0.1 mm 1 mps 752 mmHg 52%
    12:00 +37°C° 0.1 mm 2 mps 751 mmHg 51%
    13:00 +37°C° 0.1 mm 3 mps 751 mmHg 50%
    14:00 +37°C° 0.2 mm 3 mps 750 mmHg 50%
    15:00 +36°C° 0.2 mm 3 mps 750 mmHg 51%
    16:00 +36°C° 0.2 mm 3 mps 750 mmHg 52%
    17:00 +34°C° 0.1 mm 3 mps 750 mmHg 58%
    18:00 +33°C° 0.1 mm 3 mps 751 mmHg 64%
    19:00 +30°C° 0.1 mm 3 mps 751 mmHg 70%
    20:00 +30°C° 0 mm 3 mps 752 mmHg 71%
    21:00 +30°C° 0 mm 3 mps 752 mmHg 73%
    22:00 +30°C° 0 mm 3 mps 753 mmHg 74%
    23:00 +30°C° 0 mm 2 mps 752 mmHg 74%

    25 June, Tuesday

    Time Temperature Precipitation Wind Pressure Humidity
    00:00 +30°C° 0 mm 2 mps 752 mmHg 73%
    01:00 +30°C° 0 mm 2 mps 751 mmHg 73%
    02:00 +29°C° 0.4 mm 2 mps 751 mmHg 74%
    03:00 +29°C° 0.4 mm 2 mps 751 mmHg 75%
    04:00 +28°C° 0.4 mm 2 mps 751 mmHg 76%
    05:00 +28°C° 0.7 mm 2 mps 752 mmHg 75%
    06:00 +29°C° 0.7 mm 1 mps 752 mmHg 75%
    07:00 +29°C° 0.7 mm 1 mps 752 mmHg 74%
    08:00 +30°C° 0.1 mm 1 mps 753 mmHg 68%
    09:00 +32°C° 0.1 mm 1 mps 753 mmHg 63%
    10:00 +34°C° 0.1 mm 2 mps 753 mmHg 58%
    11:00 +35°C° 0.2 mm 2 mps 752 mmHg 57%
    12:00 +35°C° 0.2 mm 2 mps 752 mmHg 56%
    13:00 +35°C° 0.2 mm 2 mps 751 mmHg 55%
    14:00 +35°C° 0.1 mm 3 mps 751 mmHg 56%
    15:00 +35°C° 0.1 mm 4 mps 750 mmHg 57%
    16:00 +34°C° 0.1 mm 5 mps 750 mmHg 58%
    17:00 +33°C° 0.4 mm 5 mps 751 mmHg 63%
    18:00 +32°C° 0.4 mm 5 mps 751 mmHg 69%
    19:00 +30°C° 0.4 mm 5 mps 751 mmHg 74%
    20:00 +30°C° 0.2 mm 4 mps 752 mmHg 72%
    21:00 +30°C° 0.2 mm 4 mps 752 mmHg 70%
    22:00 +32°C° 0.2 mm 4 mps 753 mmHg 68%
    23:00 +30°C° 0.4 mm 3 mps 753 mmHg 72%
    Show more